Weather History for Knox Cnty, Mount Vernon, OH, OH

Change the Weather History Date:

Thursday, February 6, 2014

  Actual Average (KMFD) Record (KMFD)
Temperature  
Mean Temperature 14 °F 27 °F  
Max Temperature 24 °F 34 °F 57 °F (1938)
Min Temperature 3 °F 19 °F -7 °F (1948)
Degree Days  
Heating Degree Days 50 38  
Month to date heating degree days 232  
Since 1 July heating degree days 3832  
Cooling Degree Days 0 0  
Month to date cooling degree days 0  
Year to date cooling degree days 0  
Moisture  
Dew Point 11 °F    
Average Humidity 80    
Maximum Humidity 93    
Minimum Humidity 59    
Precipitation  
Precipitation 0.00 in 0.08 in 1.63 in (2008)
Month to date precipitation 0.51  
Year to date precipitation 3.38  
Snow  
Snow 0.00 in 0.40 in - ()
Month to date snowfall 2.5  
Since 1 July snowfall 29.0  
Snow Depth -    
Sea Level Pressure  
Sea Level Pressure 30.32 in    
Wind  
Wind Speed 4 mph (West)    
Max Wind Speed 14 mph    
Max Gust Speed 18 mph    
Visibility 8 miles    
Events Snow    
T = Trace of Precipitation, MM = Missing Value Source: NWS Daily Summary

Daily Weather History Graph

Daily Weather History Graph

Search for Another Location

Airport:

Trip Planner

Search our weather history database for the weather conditions in past years. The results will help you decide how hot, cold, wet, or windy it might be!

Date:

Astronomy

Feb. 06, 2014 Rise Set
Actual Time 7:34 AM EST 5:54 PM EST
Civil Twilight 7:05 AM EST 6:23 PM EST
Nautical Twilight 6:33 AM EST 6:55 PM EST
Astronomical Twilight 6:01 AM EST 7:27 PM EST
Moon 11:25 AM EST (2/6) 12:48 AM EST (2/6)
Length of Visible Light 11h 17m
Length of Day
10h 20m
Waxing Crescent, 49% of the Moon is Illuminated
Feb 6
Waxing Crescent
Feb 6
First Quarter
Feb 14
Full
Feb 22
Last Quarter
Mar 1
New

Hourly Weather History & Observations

Time (EST) Temp. Windchill Dew Point Humidity Pressure Visibility Wind Dir Wind Speed Gust Speed Precip Events Conditions
12:14 AM 17.6 °F 12.3 °F 14.0 °F 86% 30.29 in 5.0 mi North 3.5 mph - N/A Snow Light Snow
12:35 AM 17.6 °F 12.3 °F 14.0 °F 86% 30.29 in 5.0 mi North 3.5 mph - N/A Snow Light Snow
12:55 AM 17.6 °F 12.3 °F 14.0 °F 86% 30.29 in 7.0 mi North 3.5 mph - N/A Snow Light Snow
1:14 AM 17.6 °F - 14.0 °F 86% 30.29 in 7.0 mi Calm Calm - N/A Snow Light Snow
1:35 AM 17.6 °F - 14.0 °F 86% 30.29 in 7.0 mi Calm Calm - N/A Snow Light Snow
1:55 AM 15.8 °F - 14.0 °F 93% 30.29 in 4.0 mi Calm Calm - N/A Snow Light Snow
2:14 AM 15.8 °F - 12.2 °F 86% 30.29 in 10.0 mi Calm Calm - N/A Snow Light Snow
2:35 AM 15.8 °F - 12.2 °F 86% 30.30 in 7.0 mi Calm Calm - N/A Snow Light Snow
2:55 AM 15.8 °F - 12.2 °F 86% 30.30 in 5.0 mi Calm Calm - N/A Snow Light Snow
3:14 AM 15.8 °F - 12.2 °F 86% 30.30 in 5.0 mi Calm Calm - N/A Snow Light Snow
3:35 AM 15.8 °F - 12.2 °F 86% 30.30 in 3.0 mi Calm Calm - N/A Snow Light Snow
3:55 AM 15.8 °F - 12.2 °F 86% 30.30 in 10.0 mi Calm Calm - N/A   Overcast
4:14 AM 14.0 °F - 12.2 °F 93% 30.30 in 10.0 mi Calm Calm - N/A   Overcast
4:35 AM 14.0 °F - 10.4 °F 86% 30.31 in 10.0 mi Calm Calm - N/A   Scattered Clouds
4:55 AM 12.2 °F - 10.4 °F 92% 30.31 in 10.0 mi Calm Calm - N/A   Clear
5:15 AM 12.2 °F 4.3 °F 10.4 °F 92% 30.31 in 10.0 mi NW 4.6 mph - N/A   Clear
5:35 AM 10.4 °F 4.0 °F 8.6 °F 92% 30.32 in 10.0 mi West 3.5 mph - N/A   Clear
5:55 AM 10.4 °F - 8.6 °F 92% 30.32 in 10.0 mi Calm Calm - N/A   Clear
6:15 AM 12.2 °F - 10.4 °F 92% 30.32 in 10.0 mi Calm Calm - N/A   Clear
6:35 AM 10.4 °F - 8.6 °F 92% 30.33 in 10.0 mi Calm Calm - N/A   Clear
6:54 AM 10.4 °F - 8.6 °F 92% 30.32 in 10.0 mi Calm Calm - N/A   Clear
7:15 AM 10.4 °F - 8.6 °F 92% 30.33 in 10.0 mi Calm Calm - N/A   Clear
7:34 AM 10.4 °F - 8.6 °F 92% 30.34 in 10.0 mi Calm Calm - N/A   Clear
7:55 AM 10.4 °F - 8.6 °F 92% 30.34 in 10.0 mi Calm Calm - N/A   Clear
8:15 AM 10.4 °F - 8.6 °F 92% 30.34 in 7.0 mi Calm Calm - N/A   Clear
8:35 AM 10.4 °F - 8.6 °F 92% 30.35 in 10.0 mi Calm Calm - N/A   Scattered Clouds
8:55 AM 12.2 °F - 8.6 °F 85% 30.35 in 7.0 mi Calm Calm - N/A   Mostly Cloudy
9:14 AM 14.0 °F - 10.4 °F 86% 30.36 in 7.0 mi Calm Calm - N/A Snow Light Snow
9:35 AM 14.0 °F 6.5 °F 10.4 °F 86% 30.35 in 7.0 mi WNW 4.6 mph - N/A Snow Light Snow
9:55 AM 15.8 °F 8.6 °F 12.2 °F 86% 30.36 in 10.0 mi West 4.6 mph - N/A Snow Light Snow
10:14 AM 17.6 °F 9.3 °F 12.2 °F 79% 30.36 in 10.0 mi West 5.8 mph - N/A Snow Light Snow
10:35 AM 17.6 °F 9.3 °F 10.4 °F 73% 30.37 in 10.0 mi WSW 5.8 mph - N/A   Scattered Clouds
10:55 AM 21.2 °F 13.6 °F 12.2 °F 68% 30.37 in 10.0 mi WSW 5.8 mph - N/A   Mostly Cloudy
11:14 AM 21.2 °F 10.9 °F 12.2 °F 68% 30.38 in 7.0 mi SW 9.2 mph - N/A Snow Light Snow
11:35 AM 21.2 °F 12.6 °F 12.2 °F 68% 30.37 in 10.0 mi West 6.9 mph - N/A   Scattered Clouds
11:55 AM 23.0 °F 15.8 °F 12.2 °F 63% 30.36 in 10.0 mi SW 5.8 mph - N/A   Clear
12:14 PM 23.0 °F 13.9 °F 12.2 °F 63% 30.36 in 10.0 mi SW 8.1 mph - N/A   Clear
12:35 PM 23.0 °F 13.1 °F 12.2 °F 63% 30.35 in 10.0 mi WSW 9.2 mph - N/A   Clear
12:55 PM 24.8 °F 16.1 °F 12.2 °F 59% 30.34 in 10.0 mi SW 8.1 mph - N/A   Scattered Clouds
1:15 PM 23.0 °F 15.8 °F 12.2 °F 63% 30.34 in 10.0 mi WSW 5.8 mph - N/A   Mostly Cloudy
1:35 PM 23.0 °F 12.4 °F 14.0 °F 68% 30.32 in 4.0 mi WSW 10.4 mph - N/A Snow Light Snow
1:55 PM 24.8 °F 17.9 °F 14.0 °F 64% 30.31 in 5.0 mi SW 5.8 mph - N/A Snow Light Snow
2:15 PM 24.8 °F 15.3 °F 14.0 °F 64% 30.30 in 5.0 mi SW 9.2 mph - N/A Snow Light Snow
2:35 PM 23.0 °F 13.1 °F 14.0 °F 68% 30.29 in 2.5 mi WSW 9.2 mph - N/A Snow Light Snow
2:55 PM 23.0 °F 13.9 °F 14.0 °F 68% 30.29 in 5.0 mi WSW 8.1 mph - N/A Snow Light Snow
3:15 PM 23.0 °F 14.7 °F 15.8 °F 74% 30.29 in 7.0 mi WSW 6.9 mph - N/A Snow Light Snow
3:35 PM 23.0 °F 13.9 °F 14.0 °F 68% 30.30 in 10.0 mi WSW 8.1 mph - N/A   Mostly Cloudy
3:55 PM 23.0 °F 14.7 °F 12.2 °F 63% 30.29 in 10.0 mi WSW 6.9 mph - N/A   Mostly Cloudy
4:15 PM 21.2 °F 10.9 °F 12.2 °F 68% 30.29 in 10.0 mi West 9.2 mph 16.1 mph N/A Snow Light Snow
4:35 PM 21.2 °F 10.1 °F 12.2 °F 68% 30.28 in 10.0 mi West 10.4 mph - N/A Snow Light Snow
4:55 PM 21.2 °F 12.6 °F 14.0 °F 74% 30.29 in 10.0 mi WSW 6.9 mph - N/A Snow Light Snow
5:15 PM 21.2 °F 10.1 °F 14.0 °F 74% 30.29 in 10.0 mi West 10.4 mph - N/A Snow Light Snow
5:35 PM 19.4 °F 11.5 °F 14.0 °F 80% 30.29 in 7.0 mi West 5.8 mph - N/A Snow Light Snow
5:55 PM 19.4 °F 10.4 °F 14.0 °F 80% 30.28 in 5.0 mi West 6.9 mph - N/A Snow Light Snow
6:15 PM 19.4 °F 8.6 °F 14.0 °F 80% 30.28 in 5.0 mi WSW 9.2 mph - N/A Snow Light Snow
6:35 PM 19.4 °F 10.4 °F 14.0 °F 80% 30.28 in 10.0 mi WSW 6.9 mph - N/A Snow Light Snow
6:55 PM 19.4 °F 12.8 °F 14.0 °F 80% 30.29 in 10.0 mi WSW 4.6 mph - N/A Snow Light Snow
7:15 PM 19.4 °F 10.4 °F 14.0 °F 80% 30.29 in 5.0 mi WSW 6.9 mph - N/A Snow Light Snow
7:35 PM 17.6 °F 3.7 °F 14.0 °F 86% 30.29 in 7.0 mi West 13.8 mph - N/A Snow Light Snow
7:55 PM 17.6 °F 3.7 °F 12.2 °F 79% 30.29 in 7.0 mi West 13.8 mph 18.4 mph N/A Snow Light Snow
8:15 PM 15.8 °F 2.1 °F 10.4 °F 79% 30.30 in 10.0 mi West 12.7 mph - N/A   Mostly Cloudy
8:35 PM 14.0 °F 0.5 °F 8.6 °F 79% 30.31 in 10.0 mi West 11.5 mph - N/A   Overcast
8:55 PM 14.0 °F 2.0 °F 8.6 °F 79% 30.31 in 10.0 mi West 9.2 mph - N/A   Overcast
9:15 PM 12.2 °F 0.7 °F 6.8 °F 79% 30.32 in 10.0 mi West 8.1 mph - N/A   Scattered Clouds
9:36 PM 12.2 °F -0.2 °F 6.8 °F 79% 30.32 in 10.0 mi West 9.2 mph - N/A   Clear
9:55 PM 10.4 °F -1.5 °F 6.8 °F 85% 30.33 in 10.0 mi West 8.1 mph - N/A   Scattered Clouds
10:15 PM 10.4 °F -3.3 °F 5.0 °F 79% 30.33 in 10.0 mi West 10.4 mph - N/A   Scattered Clouds
10:36 PM 8.6 °F -4.7 °F 5.0 °F 85% 30.33 in 10.0 mi West 9.2 mph - N/A Snow Light Snow
10:55 PM 6.8 °F -5.9 °F 3.2 °F 85% 30.33 in 10.0 mi West 8.1 mph - N/A   Scattered Clouds
11:14 PM 6.8 °F -5.9 °F 1.4 °F 79% 30.32 in 10.0 mi West 8.1 mph - N/A   Clear
11:35 PM 5.0 °F -8.1 °F -0.4 °F 78% 30.33 in 10.0 mi West 8.1 mph - N/A   Clear
11:54 PM 3.2 °F -10.3 °F -2.2 °F 78% 30.33 in 10.0 mi West 8.1 mph - N/A   Clear